DLH1545 LQSA-EDDF

Flight info

Callsign DLH1545
Flight time N/A
Altitude 40000
Route BOSNA DCT PODET DCT SIMBA DCT AKINI T161 DEBHI DEBHI1C
Aircraft CL60/M-SBDE1E2E3FGHIJ1J4J5J7M3RWXYZ/LB1V1D1

Departure

Time 2026-04-28 13:54
Airport Sarajevo International Airport (LQSA)

Arrival

Time N/A
Airport Frankfurt Main Airport (EDDF)
Time Latitude Longitude Altitude Speed Heading
2026-04-28 13:24 43.82605 18.33487 1717 ft 0 kts 28°
2026-04-28 13:47 43.82603 18.33485 1716 ft 2 kts 28°
2026-04-28 13:47 43.82594 18.33471 1715 ft 2 kts 77°
2026-04-28 13:48 43.82595 18.33455 1715 ft 1 kts 118°
2026-04-28 13:48 43.82596 18.33454 1715 ft 0 kts 118°
2026-04-28 13:51 43.82595 18.33456 1715 ft 2 kts 121°
2026-04-28 13:51 43.82566 18.33448 1715 ft 8 kts 208°
2026-04-28 13:51 43.82519 18.33473 1715 ft 9 kts 114°
2026-04-28 13:51 43.82483 18.33557 1717 ft 10 kts 119°
2026-04-28 13:52 43.82436 18.33633 1718 ft 11 kts 164°
2026-04-28 13:52 43.82357 18.33664 1719 ft 12 kts 162°
2026-04-28 13:52 43.82272 18.33693 1720 ft 12 kts 201°
2026-04-28 13:52 43.82266 18.33661 1720 ft 0 kts 296°
2026-04-28 13:53 43.82358 18.33413 1717 ft 76 kts 295°
2026-04-28 13:53 43.82737 18.32407 1715 ft 149 kts 295°
2026-04-28 13:53 43.83249 18.31040 2195 ft 170 kts 295°
2026-04-28 13:54 43.83978 18.29694 2760 ft 186 kts 327°
2026-04-28 13:54 43.85207 18.29110 3493 ft 193 kts 347°
2026-04-28 13:54 43.86527 18.28694 4298 ft 198 kts 347°
2026-04-28 13:54 43.87910 18.28249 4974 ft 216 kts 346°
2026-04-28 13:55 43.89440 18.27745 5606 ft 238 kts 346°
2026-04-28 13:55 43.91080 18.27174 6360 ft 249 kts 345°
2026-04-28 13:55 43.92772 18.26569 7165 ft 255 kts 345°
2026-04-28 13:55 43.94490 18.25954 8015 ft 259 kts 344°
2026-04-28 13:56 43.96286 18.25494 8886 ft 265 kts 353°
2026-04-28 13:56 43.98124 18.25262 9772 ft 276 kts 353°
2026-04-28 13:56 44.00091 18.25014 10775 ft 289 kts 353°
2026-04-28 13:56 44.02119 18.24754 11857 ft 297 kts 352°
2026-04-28 13:57 44.04163 18.24492 12983 ft 301 kts 352°
2026-04-28 13:57 44.06193 18.23854 14147 ft 301 kts 334°
2026-04-28 13:57 44.07901 18.22233 15304 ft 302 kts 313°
2026-04-28 13:57 44.09285 18.20082 16507 ft 303 kts 310°
2026-04-28 13:58 44.10664 18.17900 17739 ft 301 kts 310°
2026-04-28 13:58 44.12020 18.15760 18968 ft 298 kts 310°
2026-04-28 13:58 44.13364 18.13638 20185 ft 293 kts 310°
2026-04-28 13:58 44.14688 18.11547 21365 ft 289 kts 310°
2026-04-28 13:59 44.15994 18.09482 22514 ft 284 kts 310°
2026-04-28 13:59 44.17266 18.07471 23608 ft 280 kts 310°
2026-04-28 13:59 44.18530 18.05469 24672 ft 276 kts 310°
2026-04-28 13:59 44.19781 18.03487 25686 ft 273 kts 310°
2026-04-28 14:00 44.21032 18.01505 26656 ft 269 kts 309°
2026-04-28 14:00 44.22252 17.99570 27563 ft 266 kts 309°
2026-04-28 14:00 44.23441 17.97683 28417 ft 262 kts 309°
2026-04-28 14:00 44.24630 17.95794 29232 ft 259 kts 309°
2026-04-28 14:01 44.25809 17.93920 29990 ft 256 kts 309°
2026-04-28 14:01 44.26986 17.92046 30744 ft 253 kts 309°
2026-04-28 14:01 44.28160 17.90177 31447 ft 251 kts 309°
2026-04-28 14:01 44.29307 17.88351 32105 ft 249 kts 309°
2026-04-28 14:02 44.30439 17.86547 32732 ft 247 kts 309°
2026-04-28 14:02 44.31566 17.84749 33303 ft 245 kts 309°
2026-04-28 14:02 44.32687 17.82961 33855 ft 244 kts 309°
2026-04-28 14:02 44.33807 17.81174 34377 ft 242 kts 309°
2026-04-28 14:03 44.34905 17.79419 34841 ft 241 kts 309°
2026-04-28 14:03 44.36010 17.77652 35240 ft 240 kts 309°
2026-04-28 14:03 44.37117 17.75915 35605 ft 241 kts 313°
2026-04-28 14:03 44.38435 17.74295 35604 ft 258 kts 318°
2026-04-28 14:04 44.39870 17.72681 35618 ft 272 kts 317°
2026-04-28 14:04 44.41375 17.70979 35628 ft 285 kts 318°
2026-04-28 14:04 44.42957 17.69185 35638 ft 299 kts 318°
2026-04-28 14:04 44.44619 17.67300 35649 ft 312 kts 318°
2026-04-28 14:05 44.46332 17.65354 35652 ft 324 kts 318°
2026-04-28 14:05 44.48118 17.63321 35659 ft 337 kts 318°
2026-04-28 14:05 44.49985 17.61195 35663 ft 349 kts 318°
2026-04-28 14:05 44.51912 17.58999 35663 ft 360 kts 318°
2026-04-28 14:06 44.55915 17.54428 35680 ft 380 kts 318°
2026-04-28 14:06 44.60125 17.49611 35977 ft 390 kts 318°
2026-04-28 14:07 44.62259 17.47166 36278 ft 391 kts 318°
2026-04-28 14:07 44.64358 17.44759 36589 ft 391 kts 318°
2026-04-28 14:07 44.66500 17.42298 36802 ft 393 kts 318°
2026-04-28 14:07 44.68617 17.39863 37026 ft 396 kts 319°
2026-04-28 14:08 44.70764 17.37392 37343 ft 396 kts 318°
2026-04-28 14:08 44.72906 17.34923 37627 ft 397 kts 317°
2026-04-28 14:08 44.75032 17.32470 37903 ft 398 kts 318°
2026-04-28 14:08 44.77173 17.29998 38251 ft 397 kts 318°
2026-04-28 14:09 44.79314 17.27522 38622 ft 395 kts 318°
2026-04-28 14:09 44.81437 17.25067 38974 ft 393 kts 317°
2026-04-28 14:09 44.83528 17.22644 39230 ft 393 kts 318°
2026-04-28 14:09 44.85643 17.20190 39467 ft 392 kts 318°
2026-04-28 14:10 44.87740 17.17756 39647 ft 393 kts 318°
2026-04-28 14:10 44.89874 17.15276 39830 ft 393 kts 318°
2026-04-28 14:10 44.91967 17.12841 40042 ft 392 kts 318°
2026-04-28 14:10 44.94073 17.10388 40088 ft 395 kts 317°
2026-04-28 14:11 44.98367 17.05377 40103 ft 401 kts 318°
2026-04-28 14:11 45.02694 17.00321 40098 ft 405 kts 318°
2026-04-28 14:12 45.07029 16.95243 40088 ft 405 kts 318°
2026-04-28 14:12 45.11385 16.90132 40072 ft 405 kts 318°
2026-04-28 14:13 45.15724 16.85029 40075 ft 405 kts 318°
2026-04-28 14:13 45.20055 16.79925 40076 ft 405 kts 318°
2026-04-28 14:14 45.24369 16.74832 40071 ft 404 kts 318°
2026-04-28 14:14 45.28684 16.69726 40074 ft 404 kts 318°
2026-04-28 14:15 45.33020 16.64584 40075 ft 403 kts 318°
2026-04-28 14:15 45.37321 16.59473 40073 ft 404 kts 317°
2026-04-28 14:16 45.41623 16.54351 40075 ft 404 kts 317°
2026-04-28 14:16 45.45953 16.49184 40078 ft 404 kts 318°
2026-04-28 14:17 45.50264 16.44030 40073 ft 404 kts 317°
2026-04-28 14:17 45.54547 16.38899 40075 ft 403 kts 317°
2026-04-28 14:18 45.58837 16.33749 40075 ft 404 kts 317°
2026-04-28 14:18 45.63137 16.28575 40079 ft 404 kts 317°
2026-04-28 14:19 45.67424 16.23407 40080 ft 404 kts 317°
2026-04-28 14:19 45.71731 16.18203 40079 ft 404 kts 317°
2026-04-28 14:20 45.76020 16.13012 40078 ft 404 kts 317°
2026-04-28 14:20 45.80300 16.07820 40077 ft 403 kts 317°
2026-04-28 14:21 45.84595 16.02599 40080 ft 403 kts 317°
2026-04-28 14:21 45.88860 15.97404 40091 ft 403 kts 317°
2026-04-28 14:22 45.93133 15.92187 40092 ft 404 kts 316°
2026-04-28 14:22 45.97422 15.86941 40093 ft 405 kts 317°
2026-04-28 14:23 46.01694 15.81703 40080 ft 404 kts 317°
2026-04-28 14:23 46.05986 15.76430 40067 ft 404 kts 317°
2026-04-28 14:24 46.10281 15.71143 40083 ft 405 kts 317°
2026-04-28 14:24 46.14560 15.65864 40109 ft 406 kts 316°
2026-04-28 14:25 46.18867 15.60584 40113 ft 407 kts 317°
2026-04-28 14:25 46.23224 15.55337 40108 ft 407 kts 317°
2026-04-28 14:26 46.27558 15.50104 40071 ft 407 kts 317°
2026-04-28 14:26 46.31899 15.44850 40070 ft 407 kts 317°
2026-04-28 14:27 46.36240 15.39586 40105 ft 406 kts 317°
2026-04-28 14:27 46.40592 15.34295 40099 ft 408 kts 317°
2026-04-28 14:28 46.44939 15.28998 40121 ft 409 kts 317°
2026-04-28 14:28 46.49285 15.23693 40142 ft 409 kts 317°
2026-04-28 14:29 46.53630 15.18377 40098 ft 408 kts 317°
2026-04-28 14:29 46.57992 15.13028 40096 ft 409 kts 317°
2026-04-28 14:30 46.62336 15.07690 40085 ft 410 kts 317°
2026-04-28 14:30 46.66676 15.02344 40063 ft 410 kts 317°
2026-04-28 14:31 46.71041 14.96957 40099 ft 411 kts 317°
2026-04-28 14:31 46.75399 14.91565 40101 ft 411 kts 317°
2026-04-28 14:32 46.79745 14.86177 40119 ft 410 kts 317°
2026-04-28 14:32 46.84093 14.80775 40073 ft 411 kts 317°
2026-04-28 14:33 46.88455 14.75343 40114 ft 411 kts 317°
2026-04-28 14:33 46.92800 14.69920 40108 ft 412 kts 317°
2026-04-28 14:34 46.99349 14.61725 40100 ft 412 kts 317°
2026-04-28 14:35 47.03671 14.56301 40120 ft 411 kts 316°
2026-04-28 14:35 47.08012 14.50841 40115 ft 411 kts 316°
2026-04-28 14:36 47.12368 14.45350 40117 ft 411 kts 316°
2026-04-28 14:36 47.16682 14.39899 40113 ft 410 kts 317°
2026-04-28 14:37 47.20994 14.34440 40111 ft 409 kts 316°
2026-04-28 14:37 47.25310 14.28962 40101 ft 410 kts 316°
2026-04-28 14:38 47.29622 14.23478 40108 ft 409 kts 316°
2026-04-28 14:38 47.33939 14.17975 40094 ft 409 kts 316°
2026-04-28 14:39 47.38234 14.12487 40092 ft 408 kts 316°
2026-04-28 14:39 47.42524 14.06994 40093 ft 407 kts 316°
2026-04-28 14:40 47.46819 14.01481 40100 ft 407 kts 316°
2026-04-28 14:40 47.51087 13.95992 40099 ft 407 kts 316°